TimeCST,TemperatureF,Dew PointF,Humidity,Sea Level PressureIn,VisibilityMPH,Wind Direction,Wind SpeedMPH,Gust SpeedMPH,PrecipitationIn,Events,Conditions,WindDirDegrees,DateUTC
12:56 AM,41.9,36.9,82,29.91,10.0,WNW,9.2,-,N/A,,Clear,290,2012-12-04 06:56:00
1:56 AM,41.9,34.9,76,29.92,10.0,West,8.1,-,N/A,,Clear,260,2012-12-04 07:56:00
2:56 AM,41.0,34.0,76,29.93,10.0,West,8.1,-,N/A,,Clear,270,2012-12-04 08:56:00
3:56 AM,41.9,32.0,68,29.92,10.0,West,8.1,-,N/A,,Clear,270,2012-12-04 09:56:00
4:56 AM,41.0,31.1,68,29.95,10.0,West,6.9,-,N/A,,Clear,260,2012-12-04 10:56:00
5:56 AM,41.0,30.0,65,29.98,10.0,West,9.2,-,N/A,,Clear,270,2012-12-04 11:56:00
6:56 AM,39.9,30.0,68,30.00,10.0,West,9.2,-,N/A,,Clear,270,2012-12-04 12:56:00
7:56 AM,38.8,29.1,68,30.02,10.0,West,10.4,-,N/A,,Clear,260,2012-12-04 13:56:00
8:56 AM,41.9,30.0,63,30.03,10.0,West,15.0,19.6,N/A,,Clear,270,2012-12-04 14:56:00
9:56 AM,43.9,30.0,58,30.04,10.0,West,17.3,-,N/A,,Clear,280,2012-12-04 15:56:00
10:56 AM,45.9,29.1,52,30.03,10.0,West,23.0,27.6,N/A,,Clear,270,2012-12-04 16:56:00
11:56 AM,46.9,30.0,52,30.02,10.0,West,24.2,29.9,N/A,,Clear,270,2012-12-04 17:56:00
12:56 PM,46.9,29.1,50,30.03,10.0,West,17.3,-,N/A,,Clear,270,2012-12-04 18:56:00
1:56 PM,46.9,27.1,46,30.04,10.0,WNW,17.3,-,N/A,,Clear,290,2012-12-04 19:56:00
2:56 PM,45.0,24.1,44,30.07,10.0,WNW,24.2,27.6,N/A,,Clear,290,2012-12-04 20:56:00
3:56 PM,39.9,21.0,47,30.12,10.0,WNW,19.6,27.6,N/A,,Clear,290,2012-12-04 21:56:00
4:56 PM,36.0,20.1,53,30.16,10.0,NW,11.5,21.9,N/A,,Clear,310,2012-12-04 22:56:00
5:56 PM,32.9,20.1,59,30.20,10.0,NW,10.4,-,N/A,,Clear,320,2012-12-04 23:56:00
6:56 PM,31.1,18.1,59,30.24,10.0,NW,8.1,-,N/A,,Clear,320,2012-12-05 00:56:00
7:56 PM,29.1,17.1,61,30.26,10.0,NW,6.9,-,N/A,,Clear,310,2012-12-05 01:56:00
8:56 PM,27.1,15.1,60,30.29,10.0,NW,8.1,-,N/A,,Clear,310,2012-12-05 02:56:00
9:56 PM,26.1,13.1,58,30.31,10.0,NNW,8.1,-,N/A,,Clear,340,2012-12-05 03:56:00
10:56 PM,25.2,12.0,58,30.34,10.0,NW,5.8,-,N/A,,Clear,320,2012-12-05 04:56:00
11:56 PM,23.0,11.1,60,30.36,10.0,NNW,3.5,-,N/A,,Clear,330,2012-12-05 05:56:00